Regional Weather Roundup
Issued by NWS

Home | Current Version | Previous Version | Graphics & Text | Print | Product List | Glossary On
Versions: 1 2 3 4 5 6 7 8 9 10 11 12 13 14 15 16 17 18 19 20 21 22 23 24 25 26 27 28 29 30 31 32 33 34 35 36 37 38 39 40 41 42 43 44 45 46 47 48 49 50
018
ASUS43 KMKX 240120
RWRWI

WISCONSIN REGIONAL WEATHER ROUNDUP
NATIONAL WEATHER SERVICE MILWAUKEE/SULLIVAN WI
800 PM CDT MON APR 23 2018

NOTE: "FAIR" INDICATES FEW OR NO CLOUDS BELOW 12,000 FEET WITH NO
SIGNIFICANT WEATHER AND/OR OBSTRUCTIONS TO VISIBILITY.

WIZ001-002-006>008-014>016-023>028-240200-
NORTHWEST WISCONSIN

CITY           SKY/WX    TMP DP  RH WIND       PRES   REMARKS
SUPERIOR ARPT  FAIR      61  37  41 CALM      30.09S
ASHLAND        FAIR      54  29  38 S3        30.11S
HAYWARD        FAIR      59  33  37 CALM      30.13S
SIREN          FAIR      59  33  37 CALM      30.13S
CUMBERLAND     FAIR      54  32  43 CALM      30.13S
RICE LAKE      FAIR      58  32  37 CALM      30.15S
CHETEK         FAIR      53  33  46 CALM      30.13S
LADYSMITH      FAIR      54  30  40 NW5       30.15S
EAU CLAIRE     FAIR      61  30  31 CALM      30.11S
MENOMONIE      FAIR      61  30  31 W3        30.12S
NEW RICHMOND   FAIR      60  34  38 CALM      30.13S
OSCEOLA        FAIR      62  35  36 W3        30.15S
$$

WIZ003>005-009-010-017-018-240200-
NORTH CENTRAL WISCONSIN

CITY           SKY/WX    TMP DP  RH WIND       PRES   REMARKS
MANITOWISH WTR FAIR      46  29  50 CALM      30.13S
ARBOR VITAE    FAIR      52  28  39 CALM      30.13S
WOODRUFF       FAIR      52  28  39 CALM      30.13S
RHINELANDER    FAIR      57  25  29 CALM      30.13F
EAGLE RIVER    FAIR      49  25  38 CALM      30.12S
LAND O LAKES   FAIR      46  24  40 CALM      30.14S
PHILLIPS       FAIR      48  31  50 CALM      30.13S
TOMAHAWK       FAIR      49  25  38 CALM      30.13F
MEDFORD        FAIR      55  33  43 S3        30.13S
MERRILL        FAIR      56  29  35 CALM      30.13S
$$

WIZ029-030-035-036-043>047-240200-
CENTRAL WISCONSIN

CITY           SKY/WX    TMP DP  RH WIND       PRES   REMARKS
WAUSAU         FAIR      59  27  29 E5        30.11S
MOSINEE        PTCLDY    54  28  37 S5        30.14S
MARSHFIELD     FAIR      56  32  40 CALM      30.12S
STEVENS POINT  FAIR      50  24  35 CALM      30.14S
WAUPACA        FAIR      53  25  34 CALM      30.14S
WAUTOMA        FAIR      56  31  38 E5        30.14S
WISC RAPIDS    FAIR      53  24  32 CALM      30.14S
CAMP DOUGLAS   NOT AVBL
$$

WIZ011>013-019>022-031-037>040-048>050-240200-
NORTHEAST WISCONSIN

CITY           SKY/WX    TMP DP  RH WIND       PRES   REMARKS
ANTIGO         FAIR      54  32  43 CALM      30.14S
SHAWANO        FAIR      48  31  51 CALM      30.13F
OCONTO         FAIR      46  28  50 CALM      30.14S
STURGEON BAY   FAIR      53  28  38 E6        30.15
GREEN BAY      FAIR      53  32  44 NE6       30.14S
MANITOWOC      FAIR      53  26  35 NE6       30.14F
APPLETON       PTCLDY    55  27  33 E6        30.12F
CLINTONVILLE   FAIR      51  30  45 CALM      30.14S
OSHKOSH        FAIR      56  31  38 E5        30.13S
$$

WIZ032>034-041-042-053>061-240200-
SOUTHWEST WISCONSIN

CITY           SKY/WX    TMP DP  RH WIND       PRES   REMARKS
LA CROSSE      FAIR      64  28  25 CALM      30.09S
SPARTA         FAIR      60  26  28 E3        30.12S
VIROQUA        FAIR      56  31  38 NE6       30.11S
BOSCOBEL       FAIR      64  27  24 CALM      30.10S
PRAIRIE DU CHI FAIR      63  24  22 E6        30.09S
PLATTEVILLE    FAIR      58  34  40 NE7       30.10S
$$

WIZ056-057-062-063-064-067-068-240200-
SOUTH CENTRAL WISCONSIN

CITY           SKY/WX    TMP DP  RH WIND       PRES   REMARKS
REEDSBURG      FAIR      58  29  33 CALM      30.12R
BARABOO/DELLS  FAIR      57  28  33 E5        30.12S
LONE ROCK      FAIR      57  32  38 E7        30.11R
MINERAL POINT  FAIR      61  30  31 NE7       30.11R
MADISON        MOCLDY    55  34  45 NE8       30.11S
MIDDLETON      FAIR      56  35  44 NE6       30.12S
WATERTOWN      FAIR      56  30  37 NE7       30.11S
MONROE         FAIR      57  28  33 NE8       30.09F
JANESVILLE     PTCLDY    59  28  31 E7        30.10S
$$

WIZ051-052-058>065-066-070>072-240200-
SOUTHEAST WISCONSIN

CITY           SKY/WX    TMP DP  RH WIND       PRES   REMARKS
MILWAUKEE      MOCLDY    52  25  35 N13       30.13S
WAUKESHA       CLEAR     50  25  37 E7        30.13S
MILWAUKEE/TIMM CLEAR     54  18  24 NE8       30.13S
RACINE         FAIR      49  25  39 N14       30.13S
BURLINGTON     FAIR      54  25  32 E7        30.12R
KENOSHA        FAIR      52  24  33 NE12      30.11S
FOND DU LAC    FAIR      51  34  52 NE7       30.13S
SHEBOYGAN      FAIR      47  32  56 NE6       30.13S
WEST BEND      FAIR      52  28  40 E6        30.13S
JUNEAU         FAIR      54  32  44 N3        30.13S
$$

LSZ147-162-240200-
LAKE SUPERIOR

STATION/POSITION TIME  TEMP    WIND        PRES    WAVE
                       AIR SEA DIR/SP/G            HT/PER
                 (UTC) (F)     (DEG/KT/KT) (MB)    (FT/S)
DEVILS ISLAND    0100   63     190/  5/  6 1018.8F
SAXON HARBOR     0040   49     190/  2/  3 1018.6F
$$

LMZ867-665-643>646-240200-
LAKE MICHIGAN

STATION/POSITION TIME  TEMP    WIND        PRES    WAVE
                       AIR SEA DIR/SP/G            HT/PER
                 (UTC) (F)     (DEG/KT/KT) (MB)    (FT/S)
NORTHPORT PIER   0040   42                 1020.3F
KEWAUNEE LAKESHO 0054   46      20/  3/  5 1020.0F
SHEBOYGAN LAKESH 0100   45      10/ 12/ 13 1020.8F
PORT WASHINGTON  0040   54      30/  6/ 10 1021.0F
MILWAUKEE LAKESH 0100   51      10/ 13/ 16   N/A
KENOSHA   LAKESH 0000   49                 1019.3
$$

TC  - TEMPERATURE IN CELSIUS
VSB - VISIBILITY IN STATUTE MILES
WCI - WIND CHILL INDEX
HX  - HEAT INDEX





USA.gov is the U.S. government's official web portal to all federal, state and local government web resources and services.